{"data":{"norad_id":58625,"intl_designator":"2023-203H","name":"STARLINK-30774","alt_names":[],"object_type":"PAYLOAD","status":"ACTIVE","operator":null,"country":"US","launch_date":"2023-12-23","launch_site_code":"AFETR","launch_vehicle":null,"mission":null,"orbit_class":"UNKNOWN","rcs_meters":null,"size_class":null,"mass_kg":null,"dimensions":null,"purposes":["comms"],"wikipedia_slug":null,"has_3d_model":false,"image_url":null,"decayed_at":null,"tle_current":{"epoch":"2026-09-19T16:52:01.993440Z","epoch_age_seconds":218726,"freshness":"STALE","line1":"1 58625U 23203H   26262.70280085 -.00001188  00000+0 -33666-4 0  9991","line2":"2 58625  43.0012  51.3671 0001472 267.2764  92.7919 15.27568528153239","mean_motion":15.27568528,"eccentricity":0.0001472,"inclination_deg":43.0012,"raan_deg":51.3671,"arg_perigee_deg":267.2764,"mean_anomaly_deg":92.7919,"bstar":-3.3666e-5,"rev_number":15323,"period_min":94.267456654488,"perigee_km":482.07347589979,"apogee_km":484.09341919954,"semimajor_km":6861.2204475497,"source":"CELESTRAK","updated_at":"2026-09-21T09:00:33.922922Z"}}}